HSG005 CYXS-CYMJ

Flight info

Callsign HSG005
Flight time 1h 38m
Altitude 41000
Route YXS DCT CAMRA DCT MEGEX
Aircraft B789/H-SDE1E2E3FGHIJ2J3J4J5M1RWXY/LB1D1

Departure

Time 2026-04-26 00:20
Airport Prince George (International) Airport (CYXS)

Arrival

Time 2026-04-26 01:58
Airport Moose Jaw Air Vice Marshal C. M. McEwen Airport (CYMJ)
Time Latitude Longitude Altitude Speed Heading
2026-04-26 00:16 53.87214 -122.66316 2213 ft 0 kts 351°
2026-04-26 00:19 53.87302 -122.66340 2213 ft 41 kts 351°
2026-04-26 00:19 53.87629 -122.66431 2218 ft 102 kts 351°
2026-04-26 00:20 53.88614 -122.66702 2238 ft 182 kts 351°
2026-04-26 00:20 53.89899 -122.67241 3209 ft 177 kts 345°
2026-04-26 00:20 53.91090 -122.67861 4367 ft 190 kts 350°
2026-04-26 00:20 53.92440 -122.67217 4881 ft 224 kts 36°
2026-04-26 00:21 53.93253 -122.64809 5721 ft 246 kts 78°
2026-04-26 00:21 53.92934 -122.61995 6880 ft 257 kts 113°
2026-04-26 00:21 53.91879 -122.59433 7889 ft 264 kts 123°
2026-04-26 00:21 53.90845 -122.56851 8920 ft 265 kts 116°
2026-04-26 00:22 53.90017 -122.54048 9877 ft 266 kts 107°
2026-04-26 00:22 53.89458 -122.51059 10746 ft 267 kts 97°
2026-04-26 00:22 53.89273 -122.47935 11584 ft 266 kts 84°
2026-04-26 00:22 53.89337 -122.44801 12474 ft 271 kts 86°
2026-04-26 00:23 53.89217 -122.41581 13292 ft 275 kts 87°
2026-04-26 00:23 53.89116 -122.38319 14139 ft 279 kts 87°
2026-04-26 00:23 53.88972 -122.35018 14912 ft 283 kts 88°
2026-04-26 00:23 53.88810 -122.31716 15665 ft 286 kts 88°
2026-04-26 00:24 53.88653 -122.28327 16416 ft 290 kts 87°
2026-04-26 00:24 53.88500 -122.24893 17166 ft 294 kts 87°
2026-04-26 00:24 53.88342 -122.21417 17903 ft 298 kts 87°
2026-04-26 00:24 53.88179 -122.17896 18573 ft 302 kts 87°
2026-04-26 00:25 53.88013 -122.14304 19045 ft 316 kts 87°
2026-04-26 00:25 53.87842 -122.10411 19138 ft 347 kts 88°
2026-04-26 00:25 53.87644 -122.06154 19198 ft 377 kts 88°
2026-04-26 00:25 53.87418 -122.01605 19584 ft 393 kts 89°
2026-04-26 00:26 53.87184 -121.96984 20490 ft 394 kts 88°
2026-04-26 00:26 53.86962 -121.92329 21234 ft 399 kts 88°
2026-04-26 00:26 53.86739 -121.87622 21988 ft 402 kts 88°
2026-04-26 00:26 53.86506 -121.82877 22747 ft 406 kts 88°
2026-04-26 00:27 53.86265 -121.78082 23461 ft 410 kts 88°
2026-04-26 00:27 53.86024 -121.73239 24062 ft 414 kts 88°
2026-04-26 00:27 53.85780 -121.68377 24678 ft 416 kts 88°
2026-04-26 00:27 53.85531 -121.63487 25249 ft 418 kts 87°
2026-04-26 00:28 53.85280 -121.58561 25852 ft 421 kts 87°
2026-04-26 00:28 53.85025 -121.53609 26434 ft 424 kts 87°
2026-04-26 00:28 53.84765 -121.48614 27003 ft 427 kts 87°
2026-04-26 00:28 53.84502 -121.43596 27551 ft 429 kts 87°
2026-04-26 00:29 53.84235 -121.38544 28056 ft 432 kts 87°
2026-04-26 00:29 53.83964 -121.33460 28574 ft 435 kts 87°
2026-04-26 00:29 53.83690 -121.28339 29069 ft 438 kts 87°
2026-04-26 00:29 53.83407 -121.23107 29540 ft 441 kts 87°
2026-04-26 00:30 53.83127 -121.17992 30010 ft 444 kts 87°
2026-04-26 00:30 53.82841 -121.12769 30400 ft 447 kts 88°
2026-04-26 00:30 53.82545 -121.07460 30739 ft 450 kts 88°
2026-04-26 00:30 53.82253 -121.02229 31079 ft 453 kts 88°
2026-04-26 00:31 53.81949 -120.96829 31431 ft 457 kts 88°
2026-04-26 00:31 53.81645 -120.91470 31776 ft 460 kts 88°
2026-04-26 00:31 53.81335 -120.86061 32104 ft 463 kts 88°
2026-04-26 00:31 53.81021 -120.80629 32426 ft 466 kts 88°
2026-04-26 00:32 53.80703 -120.75150 32746 ft 469 kts 89°
2026-04-26 00:32 53.80380 -120.69651 33053 ft 472 kts 89°
2026-04-26 00:32 53.79720 -120.58563 33830 ft 473 kts 89°
2026-04-26 00:33 53.79389 -120.53034 34213 ft 472 kts 90°
2026-04-26 00:33 53.79054 -120.47503 34514 ft 474 kts 90°
2026-04-26 00:33 53.78716 -120.41950 34767 ft 476 kts 90°
2026-04-26 00:33 53.78373 -120.36376 35117 ft 477 kts 90°
2026-04-26 00:34 53.78027 -120.30799 35417 ft 478 kts 91°
2026-04-26 00:34 53.77678 -120.25203 35723 ft 479 kts 91°
2026-04-26 00:34 53.77326 -120.19595 36056 ft 480 kts 91°
2026-04-26 00:34 53.76970 -120.13984 36373 ft 481 kts 91°
2026-04-26 00:35 53.76610 -120.08354 36679 ft 482 kts 92°
2026-04-26 00:35 53.76248 -120.02714 36994 ft 483 kts 92°
2026-04-26 00:35 53.75882 -119.97065 37277 ft 484 kts 92°
2026-04-26 00:35 53.75512 -119.91407 37595 ft 485 kts 92°
2026-04-26 00:36 53.75139 -119.85736 37897 ft 486 kts 92°
2026-04-26 00:36 53.74763 -119.80053 38214 ft 487 kts 93°
2026-04-26 00:36 53.74384 -119.74376 38550 ft 487 kts 93°
2026-04-26 00:36 53.74001 -119.68683 38855 ft 488 kts 93°
2026-04-26 00:37 53.73615 -119.62986 39106 ft 488 kts 94°
2026-04-26 00:37 53.73226 -119.57285 39360 ft 489 kts 94°
2026-04-26 00:37 53.72830 -119.51510 39598 ft 489 kts 94°
2026-04-26 00:37 53.72436 -119.45812 39832 ft 489 kts 94°
2026-04-26 00:38 53.72038 -119.40104 40085 ft 489 kts 94°
2026-04-26 00:38 53.71637 -119.34398 40325 ft 490 kts 94°
2026-04-26 00:38 53.71234 -119.28686 40575 ft 490 kts 94°
2026-04-26 00:38 53.70828 -119.22976 40841 ft 490 kts 94°
2026-04-26 00:39 53.70419 -119.17273 41090 ft 490 kts 94°
2026-04-26 00:39 53.70007 -119.11544 41142 ft 494 kts 95°
2026-04-26 00:39 53.69167 -119.00037 41140 ft 492 kts 94°
2026-04-26 00:40 53.68325 -118.88623 41140 ft 490 kts 95°
2026-04-26 00:40 53.67472 -118.77229 41146 ft 490 kts 95°
2026-04-26 00:41 53.66609 -118.65842 41147 ft 490 kts 95°
2026-04-26 00:41 53.65735 -118.54448 41139 ft 490 kts 95°
2026-04-26 00:42 53.64848 -118.43043 41138 ft 490 kts 95°
2026-04-26 00:42 53.63950 -118.31642 41139 ft 491 kts 95°
2026-04-26 00:43 53.63042 -118.20254 41134 ft 490 kts 95°
2026-04-26 00:43 53.62125 -118.08885 41125 ft 490 kts 95°
2026-04-26 00:44 53.61196 -117.97517 41120 ft 490 kts 95°
2026-04-26 00:44 53.60248 -117.86045 41127 ft 491 kts 95°
2026-04-26 00:45 53.59456 -117.76577 41117 ft 491 kts 95°
2026-04-26 00:45 53.58329 -117.63256 41119 ft 493 kts 96°
2026-04-26 00:46 53.57351 -117.51839 41117 ft 493 kts 96°
2026-04-26 00:46 53.56363 -117.40436 41126 ft 492 kts 96°
2026-04-26 00:47 53.55365 -117.29043 41123 ft 493 kts 96°
2026-04-26 00:47 53.54355 -117.17649 41121 ft 492 kts 96°
2026-04-26 00:48 53.53337 -117.06292 41124 ft 491 kts 96°
2026-04-26 00:48 53.52310 -116.94949 41094 ft 491 kts 96°
2026-04-26 00:49 53.51271 -116.83612 41070 ft 492 kts 96°
2026-04-26 00:49 53.50220 -116.72260 41050 ft 492 kts 96°
2026-04-26 00:50 53.49158 -116.60906 41033 ft 492 kts 96°
2026-04-26 00:50 53.48084 -116.49553 41023 ft 492 kts 96°
2026-04-26 00:51 53.47000 -116.38207 41031 ft 493 kts 97°
2026-04-26 00:51 53.45902 -116.26852 41049 ft 492 kts 97°
2026-04-26 00:52 53.44797 -116.15515 41066 ft 493 kts 97°
2026-04-26 00:52 53.43861 -116.06014 41085 ft 492 kts 97°
2026-04-26 00:53 53.42736 -115.94693 41097 ft 493 kts 97°
2026-04-26 00:53 53.41598 -115.83362 41105 ft 493 kts 97°
2026-04-26 00:54 53.40449 -115.72041 41106 ft 493 kts 97°
2026-04-26 00:54 53.39290 -115.60709 41100 ft 494 kts 97°
2026-04-26 00:55 53.38116 -115.49355 41097 ft 496 kts 98°
2026-04-26 00:55 53.36929 -115.37982 41100 ft 496 kts 98°
2026-04-26 00:56 53.35730 -115.26623 41105 ft 495 kts 98°
2026-04-26 00:56 53.34524 -115.15281 41111 ft 495 kts 98°
2026-04-26 00:57 53.33307 -115.03959 41114 ft 494 kts 98°
2026-04-26 00:57 53.32081 -114.92650 41119 ft 494 kts 98°
2026-04-26 00:58 53.30836 -114.81281 41123 ft 494 kts 98°
2026-04-26 00:58 53.29589 -114.69984 41125 ft 495 kts 98°
2026-04-26 00:59 53.28328 -114.58684 41129 ft 495 kts 98°
2026-04-26 00:59 53.27059 -114.47397 41129 ft 494 kts 98°
2026-04-26 01:00 53.25780 -114.36127 41131 ft 494 kts 99°
2026-04-26 01:00 53.24487 -114.24836 41134 ft 496 kts 99°
2026-04-26 01:01 53.23179 -114.13519 41130 ft 497 kts 99°
2026-04-26 01:01 53.21861 -114.02210 41115 ft 496 kts 99°
2026-04-26 01:02 53.20532 -113.90906 41095 ft 497 kts 99°
2026-04-26 01:02 53.19192 -113.79607 41087 ft 497 kts 99°
2026-04-26 01:03 53.17839 -113.68293 41069 ft 497 kts 99°
2026-04-26 01:03 53.16476 -113.56995 41075 ft 497 kts 99°
2026-04-26 01:04 53.15102 -113.45701 41086 ft 498 kts 99°
2026-04-26 01:04 53.13718 -113.34417 41103 ft 497 kts 99°
2026-04-26 01:05 53.12325 -113.23156 41126 ft 496 kts 100°
2026-04-26 01:05 53.10912 -113.11829 41149 ft 496 kts 100°
2026-04-26 01:06 53.09501 -113.00607 41150 ft 496 kts 100°
2026-04-26 01:06 53.08077 -112.89371 41148 ft 497 kts 100°
2026-04-26 01:07 53.06638 -112.78119 41145 ft 498 kts 100°
2026-04-26 01:07 53.05188 -112.66863 41152 ft 498 kts 100°
2026-04-26 01:08 53.03720 -112.55617 41148 ft 498 kts 103°
2026-04-26 01:08 53.02592 -112.50182 39876 ft 497 kts 116°
2026-04-26 01:08 53.00919 -112.45282 40067 ft 482 kts 123°
2026-04-26 01:09 52.99093 -112.40607 40209 ft 483 kts 123°
2026-04-26 01:09 52.97247 -112.35916 40345 ft 487 kts 123°
2026-04-26 01:09 52.95381 -112.31210 40478 ft 490 kts 123°
2026-04-26 01:09 52.93504 -112.26467 40619 ft 494 kts 123°
2026-04-26 01:10 52.91619 -112.21697 40746 ft 496 kts 123°
2026-04-26 01:10 52.89723 -112.16914 40883 ft 497 kts 123°
2026-04-26 01:10 52.87822 -112.12137 40991 ft 497 kts 123°
2026-04-26 01:10 52.85917 -112.07359 40995 ft 497 kts 123°
2026-04-26 01:11 52.82118 -111.97843 40994 ft 493 kts 123°
2026-04-26 01:11 52.78333 -111.88408 40993 ft 492 kts 123°
2026-04-26 01:12 52.74548 -111.79000 40994 ft 491 kts 124°
2026-04-26 01:12 52.70760 -111.69624 40994 ft 491 kts 124°
2026-04-26 01:13 52.66970 -111.60276 40992 ft 490 kts 124°
2026-04-26 01:13 52.63170 -111.50939 40991 ft 491 kts 124°
2026-04-26 01:14 52.59357 -111.41603 40996 ft 492 kts 124°
2026-04-26 01:14 52.55505 -111.32205 40996 ft 492 kts 124°
2026-04-26 01:15 52.51700 -111.22957 40994 ft 491 kts 124°
2026-04-26 01:15 52.47840 -111.13608 40993 ft 492 kts 124°
2026-04-26 01:16 52.43990 -111.04318 40996 ft 493 kts 124°
2026-04-26 01:16 52.40121 -110.95019 41002 ft 494 kts 124°
2026-04-26 01:17 52.36245 -110.85734 41005 ft 494 kts 124°
2026-04-26 01:17 52.32365 -110.76472 41004 ft 493 kts 124°
2026-04-26 01:18 52.28488 -110.67252 41003 ft 492 kts 124°
2026-04-26 01:18 52.24610 -110.58064 40998 ft 491 kts 124°
2026-04-26 01:19 52.20733 -110.48910 40997 ft 490 kts 124°
2026-04-26 01:19 52.16846 -110.39764 40993 ft 491 kts 125°
2026-04-26 01:20 52.12951 -110.30632 40997 ft 491 kts 125°
2026-04-26 01:20 52.09048 -110.21515 40998 ft 491 kts 125°
2026-04-26 01:21 52.05133 -110.12402 40997 ft 491 kts 125°
2026-04-26 01:21 52.01214 -110.03312 40996 ft 491 kts 125°
2026-04-26 01:22 51.97289 -109.94242 40997 ft 491 kts 125°
2026-04-26 01:22 51.93355 -109.85179 40996 ft 492 kts 125°
2026-04-26 01:23 51.89381 -109.76060 40996 ft 492 kts 125°
2026-04-26 01:23 51.85432 -109.67028 41000 ft 492 kts 125°
2026-04-26 01:24 51.81472 -109.58003 40996 ft 492 kts 125°
2026-04-26 01:24 51.77509 -109.49005 40998 ft 492 kts 126°
2026-04-26 01:25 51.74209 -109.41534 40998 ft 491 kts 126°
2026-04-26 01:25 51.70235 -109.32566 40998 ft 491 kts 126°
2026-04-26 01:26 51.66255 -109.23617 40997 ft 491 kts 126°
2026-04-26 01:26 51.62271 -109.14688 40997 ft 491 kts 126°
2026-04-26 01:27 51.58280 -109.05775 40996 ft 491 kts 126°
2026-04-26 01:27 51.54259 -108.96827 40999 ft 491 kts 126°
2026-04-26 01:28 51.50257 -108.87949 40996 ft 490 kts 126°
2026-04-26 01:28 51.46253 -108.79098 40995 ft 490 kts 126°
2026-04-26 01:29 51.42244 -108.70269 40996 ft 489 kts 126°
2026-04-26 01:29 51.38230 -108.61456 40995 ft 490 kts 126°
2026-04-26 01:30 51.34195 -108.52628 40997 ft 492 kts 126°
2026-04-26 01:30 51.30142 -108.43792 41003 ft 494 kts 126°
2026-04-26 01:31 51.26078 -108.34961 41007 ft 493 kts 126°
2026-04-26 01:31 51.22016 -108.26164 41007 ft 492 kts 126°
2026-04-26 01:32 51.17959 -108.17407 41004 ft 491 kts 127°
2026-04-26 01:32 51.13901 -108.08678 40999 ft 490 kts 127°
2026-04-26 01:33 51.09843 -107.99980 40995 ft 490 kts 127°
2026-04-26 01:33 51.05738 -107.91208 41001 ft 492 kts 127°
2026-04-26 01:34 51.01649 -107.82501 41003 ft 492 kts 127°
2026-04-26 01:34 50.97548 -107.73796 41003 ft 492 kts 127°
2026-04-26 01:35 50.93448 -107.65125 41001 ft 491 kts 127°
2026-04-26 01:35 50.89350 -107.56485 40998 ft 490 kts 127°
2026-04-26 01:36 50.85246 -107.47860 40998 ft 491 kts 127°
2026-04-26 01:37 50.79072 -107.34940 41003 ft 491 kts 127°
2026-04-26 01:37 50.74947 -107.26343 41001 ft 490 kts 127°
2026-04-26 01:38 50.70826 -107.17785 40997 ft 489 kts 127°
2026-04-26 01:38 50.66693 -107.09227 41002 ft 492 kts 127°
2026-04-26 01:39 50.62539 -107.00655 41001 ft 492 kts 127°
2026-04-26 01:39 50.58374 -106.92088 41003 ft 493 kts 127°
2026-04-26 01:40 50.54205 -106.83541 41008 ft 493 kts 128°
2026-04-26 01:40 50.50194 -106.74832 41039 ft 491 kts 117°
2026-04-26 01:40 50.48839 -106.69957 40720 ft 485 kts 110°
2026-04-26 01:41 50.47707 -106.64955 39853 ft 488 kts 109°
2026-04-26 01:41 50.46613 -106.59890 38968 ft 492 kts 109°
2026-04-26 01:41 50.45486 -106.54820 38097 ft 490 kts 110°
2026-04-26 01:41 50.44319 -106.49754 37201 ft 484 kts 110°
2026-04-26 01:42 50.43204 -106.44875 36334 ft 479 kts 109°
2026-04-26 01:42 50.42088 -106.39908 35440 ft 474 kts 109°
2026-04-26 01:42 50.40995 -106.35065 34496 ft 468 kts 109°
2026-04-26 01:42 50.39883 -106.30195 32264 ft 485 kts 110°
2026-04-26 01:43 50.38745 -106.25243 29684 ft 488 kts 110°
2026-04-26 01:43 50.37630 -106.20368 27973 ft 465 kts 110°
2026-04-26 01:43 50.36555 -106.15666 25997 ft 452 kts 110°
2026-04-26 01:43 50.35507 -106.11110 24084 ft 438 kts 110°
2026-04-26 01:44 50.34467 -106.06604 23052 ft 437 kts 110°
2026-04-26 01:44 50.33448 -106.02193 22400 ft 428 kts 110°
2026-04-26 01:44 50.32437 -105.97821 21629 ft 425 kts 110°
2026-04-26 01:44 50.31438 -105.93508 20881 ft 420 kts 110°
2026-04-26 01:45 50.30447 -105.89246 20117 ft 415 kts 110°
2026-04-26 01:45 50.29475 -105.85068 19940 ft 396 kts 110°
2026-04-26 01:45 50.28560 -105.81145 19992 ft 373 kts 110°
2026-04-26 01:45 50.27695 -105.77445 19990 ft 352 kts 110°
2026-04-26 01:46 50.26885 -105.73983 19991 ft 328 kts 110°
2026-04-26 01:46 50.26130 -105.70762 19996 ft 303 kts 110°
2026-04-26 01:46 50.25422 -105.67742 19992 ft 293 kts 110°
2026-04-26 01:46 50.24724 -105.64775 20001 ft 289 kts 110°
2026-04-26 01:47 50.24036 -105.61852 19999 ft 284 kts 110°
2026-04-26 01:47 50.23358 -105.58978 20000 ft 280 kts 110°
2026-04-26 01:47 50.22687 -105.56134 19994 ft 277 kts 110°
2026-04-26 01:47 50.22023 -105.53322 19992 ft 275 kts 110°
2026-04-26 01:48 50.21365 -105.50543 19995 ft 272 kts 110°
2026-04-26 01:48 50.20711 -105.47783 19991 ft 270 kts 110°
2026-04-26 01:48 50.20062 -105.45046 19995 ft 268 kts 110°
2026-04-26 01:48 50.19333 -105.42388 19977 ft 266 kts 123°
2026-04-26 01:49 50.18008 -105.40444 19997 ft 262 kts 144°
2026-04-26 01:49 50.16505 -105.38850 19992 ft 261 kts 147°
2026-04-26 01:49 50.14969 -105.37306 19701 ft 266 kts 147°
2026-04-26 01:49 50.13441 -105.35731 18945 ft 266 kts 146°
2026-04-26 01:50 50.11883 -105.34093 17955 ft 274 kts 146°
2026-04-26 01:50 50.10319 -105.32348 16950 ft 279 kts 139°
2026-04-26 01:50 50.09262 -105.29814 15917 ft 284 kts 109°
2026-04-26 01:50 50.09081 -105.26684 14909 ft 294 kts 81°
2026-04-26 01:51 50.09896 -105.23760 13921 ft 301 kts 51°
2026-04-26 01:51 50.11546 -105.21785 12950 ft 303 kts 22°
2026-04-26 01:51 50.13556 -105.21312 11948 ft 285 kts 354°
2026-04-26 01:51 50.15423 -105.21997 10933 ft 268 kts 343°
2026-04-26 01:52 50.17160 -105.22833 9926 ft 254 kts 342°
2026-04-26 01:52 50.18710 -105.23583 9911 ft 200 kts 342°
2026-04-26 01:52 50.19872 -105.24116 9897 ft 160 kts 342°
2026-04-26 01:52 50.20932 -105.24743 9002 ft 173 kts 328°
2026-04-26 01:53 50.21820 -105.26057 8077 ft 181 kts 305°
2026-04-26 01:53 50.22393 -105.27741 7448 ft 171 kts 290°
2026-04-26 01:53 50.22897 -105.29330 6963 ft 158 kts 306°
2026-04-26 01:53 50.23626 -105.30701 6561 ft 171 kts 314°
2026-04-26 01:54 50.24481 -105.32063 6138 ft 182 kts 312°
2026-04-26 01:54 50.25307 -105.33593 5814 ft 183 kts 307°
2026-04-26 01:54 50.26005 -105.35216 5573 ft 179 kts 298°
2026-04-26 01:54 50.26618 -105.36883 5303 ft 174 kts 300°
2026-04-26 01:55 50.27227 -105.38528 4718 ft 175 kts 301°
2026-04-26 01:55 50.27821 -105.40174 4138 ft 174 kts 301°
2026-04-26 01:55 50.28399 -105.41812 3635 ft 170 kts 298°
2026-04-26 01:55 50.28938 -105.43391 3350 ft 159 kts 298°
2026-04-26 01:56 50.29453 -105.44887 3096 ft 154 kts 298°
2026-04-26 01:56 50.29941 -105.46363 2907 ft 151 kts 296°
2026-04-26 01:56 50.30422 -105.47841 2743 ft 150 kts 296°
2026-04-26 01:56 50.30912 -105.49283 2527 ft 149 kts 298°
2026-04-26 01:57 50.31436 -105.50674 2351 ft 148 kts 300°
2026-04-26 01:57 50.31907 -105.52074 2184 ft 146 kts 298°
2026-04-26 01:57 50.32394 -105.53467 1993 ft 146 kts 298°
2026-04-26 01:57 50.32871 -105.54837 1899 ft 140 kts 297°
2026-04-26 01:58 50.33171 -105.55694 1889 ft 108 kts 298°
2026-04-26 01:58 50.33324 -105.56150 1883 ft 16 kts 297°
2026-04-26 01:58 50.33382 -105.56297 1895 ft 11 kts 317°
2026-04-26 01:58 50.33437 -105.56313 1888 ft 7 kts 26°
2026-04-26 01:59 50.33483 -105.56265 1888 ft 9 kts 35°
2026-04-26 01:59 50.33525 -105.56204 1884 ft 4 kts 68°
2026-04-26 01:59 50.33521 -105.56094 1889 ft 23 kts 94°
2026-04-26 01:59 50.33518 -105.56011 1891 ft 0 kts 94°
2026-04-26 02:00 50.33516 -105.55985 1895 ft 10 kts 95°
2026-04-26 02:00 50.33517 -105.55934 1895 ft 3 kts 76°
2026-04-26 02:00 50.33519 -105.55901 1890 ft 0 kts 71°
2026-04-26 02:00 50.33530 -105.55896 1884 ft 0 kts